Regional Weather Roundup
Issued by NWS

Home | Current Version | Previous Version | Graphics & Text | Print | Product List | Glossary On
Versions: 1 2 3 4 5 6 7 8 9 10 11 12 13 14 15 16 17 18 19 20 21 22 23 24 25 26 27 28 29 30 31 32 33 34 35 36 37 38 39 40 41 42 43 44 45 46 47 48 49 50
000
ASUS45 KTFX 221610
RWRMT
MONTANA REGIONAL WEATHER ROUNDUP
NATIONAL WEATHER SERVICE GREAT FALLS MT
1000 AM MDT FRI SEP 22 2017

NOTE: "FAIR" INDICATES FEW OR NO CLOUDS BELOW 12000 FEET WITH NO
SIGNIFICANT WEATHER AND/OR OBSTRUCTIONS TO VISIBILITY.

MTZ001>007-043-221700-
WEST OF THE DIVIDE

CITY           SKY/WX    TMP DP  RH WIND       PRES   REMARKS
KALISPELL      CLOUDY    45  30  55 NE10      30.02S
MISSOULA       CLOUDY    42  36  79 E9        30.00R
BUTTE          LGT SNOW  33  30  88 NW8       29.92R FOG     WCI  26
MULLAN PASS    CLOUDY    31  28  89 VRB5      29.96R
ANACONDA         N/A     34  27  75 N15G22    29.96R WCI  24
DEER LODGE       N/A     36  28  75 NW7       30.00S WCI  30
EUREKA           N/A     41  37  87 CALM      30.07R
HAMILTON         N/A     39  34  81 N14G21    29.97R WCI  31
LIBBY            N/A     37  36  93 CALM      30.06S
PLAINS           N/A     43  38  82 CALM      30.03R
$$

MTZ008-052>055-221700-
SOUTHWEST MONTANA

CITY           SKY/WX    TMP DP  RH WIND       PRES   REMARKS
BOZEMAN        CLOUDY    40  36  86 W13       29.91R
DILLON         LGT SNOW  35  32  88 NE12      29.88R WCI  27
W YELLOWSTONE  FLURRIES  34  34 100 MISG      29.88R
ENNIS          MIX PCPN  36  32  87 N12       29.93R WCI  27
THREE FORKS      N/A     39  34  82 N2        29.93S
TWIN BRIDGES     N/A     35  29  79 N21       29.88R WCI  24
$$

MTZ009-010-012-014-046-048-049-054-221700-
EAST SLOPES AND CENTRAL MONTANA

CITY           SKY/WX    TMP DP  RH WIND       PRES   REMARKS
CUT BANK       CLOUDY    36  32  85 N9        30.10R WCI  29
GREAT FALLS    LGT RAIN  36  33  89 N9        30.07S FOG     WCI  29
MALMSTROM AFB  LGT RAIN  36  35  97 NE9       30.09R WCI  29
HELENA         CLOUDY    38  33  82 N15       30.01R HAZE    WCI  29
BOWMANS CRNR   LGT SNOW  31  31  99 N14       30.04S WCI  21
CHOTEAU          N/A     36  34  93 N12       30.10S WCI  27
FAIRFIELD      LGT SNOW  35  32  91 N12       30.07F WCI  26
POWER          LGT RAIN  35  33  94 N12       30.06F WCI  27
RAYNESFORD     LGT RAIN  35  34  98 CALM      30.06R
ULM            LGT SNOW  34  34  99 N6        30.07S WCI  29
$$

MTZ011-013-016-021-045-047-050-051-221700-
NORTH CENTRAL MONTANA

CITY           SKY/WX    TMP DP  RH WIND       PRES   REMARKS
HAVRE          CLOUDY    41  34  76 N5        30.10R
LEWISTOWN      CLOUDY    35  34  96 E5        30.04R
N BAR RANCH    PTSUNNY   32  32 100 CALM      30.05F FOG
CHINOOK          N/A     41  36  81 NW5       30.10S
DENTON           N/A     36  35  95 NW9       30.03S WCI  29
GEYSER         LGT RAIN  34  33  97 N12       30.05R WCI  26
JUDITH GAP     SNOW      32  32  98 NW15G23   30.02R VSB 1/2 WCI  22
WINIFRED       PTSUNNY   37  36  96 NE9       30.06R WCI  30
$$

MTZ017>020-022>027-061-062-221700-
NORTHEAST MONTANA

CITY           SKY/WX    TMP DP  RH WIND       PRES   REMARKS
GLASGOW        LGT RAIN  41  39  93 N6        30.07R
JORDAN           N/A     41  38  89 N13       30.04S
SIDNEY         CLOUDY    46  38  73 N17       29.98F
WOLF POINT     LGT RAIN  46  39  76 N8        30.06R
MALTA          PTSUNNY   43  37  81 CALM      30.09R
POPLAR           N/A     45  37  76 N6        30.05R
SCOBEY           N/A     42  32  68 NW6       30.04R
$$

MTZ028>42-056>058-221700-
SOUTHCENTRAL AND SOUTHEAST MONTANA

CITY           SKY/WX    TMP DP  RH WIND       PRES   REMARKS
BAKER          CLOUDY    47  35  63 N13G21    29.95S
BILLINGS       LGT RAIN  40  39  97 NE12      30.01R FOG
LIVINGSTON     CLOUDY    34  32  92 E21       29.95S WCI  22
MILES CITY     CLOUDY    48  33  56 N14       29.98F
BIG TIMBER     FOG       32  32 100 NE9       30.03S VSB 0   WCI  24
EKALAKA          N/A     44  35  70 N14       29.92F
HARLOWTON      LGT SNOW  33  32  98 MISG      30.03R
LAUREL           N/A     41  39  93 NE13      30.01R FOG
$$

REGIONAL REPORTS...DAKOTAS

CITY           SKY/WX    TMP DP  RH WIND       PRES   REMARKS
WILLISTON      CLOUDY    47  39  74 N12       29.99F
MINOT          LGT RAIN  50  39  66 N15G25    29.90S
DICKINSON      CLOUDY    46  41  82 N17       29.90R
BEACH          CLOUDY    46  36  66 N16       29.99R
CROSBY         CLOUDY    45  43  93 N10       30.01R
TIOGA          LGT RAIN  45  45 100 N16       29.96S
WATFORD CITY   CLOUDY    48  39  71 N10G17    29.97R
BISMARCK       CLOUDY    56  44  64 N10       29.79R
GRAND FORKS    CLOUDY    63  55  75 N17       29.79F
FARGO          PTSUNNY   71  64  78 NE10      29.71F
BUFFALO SD       N/A     51  37  58 N20G29    29.81S
RAPID CITY     CLOUDY    54  39  58 NW25G38   29.82R
$$

REGIONAL REPORTS...WYOMING/IDAHO/WASHINGTON

CITY           SKY/WX    TMP DP  RH WIND       PRES   REMARKS
GILLETTE       CLOUDY    47  36  65 N16       29.93R
SHERIDAN       CLOUDY    44  41  89 N7        29.95F
BUFFALO WY     LGT RAIN  40  36  86 N10       29.99R
CODY           CLOUDY    34  34 100 NE6       29.97S WCI  29
IDAHO FALLS    CLOUDY    41  39  93 SW14      29.90R
SALMON         CLOUDY    42  38  85 CALM      29.89R
BOISE          LGT RAIN  43  41  93 W6        29.93R FOG
SPOKANE        MOSUNNY   42  41  96 CALM      30.01R
$$

REGIONAL REPORTS...ALBERTA

CITY           SKY/WX    TMP DP  RH WIND       PRES   REMARKS
EDMONTON       CLOUDY    39  37  93 CALM      30.13F
CALGARY        CLOUDY    36  32  87 N6        30.11R WCI  31
LETHBRIDGE     DRIZZLE   37  36  93 NW8       30.12S FOG     WCI  31
MEDICINE HAT   LGT RAIN  41  39  93 NW6       30.10S
$$

REGIONAL REPORTS...SASKATCHEWAN

CITY           SKY/WX    TMP DP  RH WIND       PRES   REMARKS
SWIFT CURRENT  CLOUDY    39  36  87 NW8       30.05S
REGINA         CLOUDY    43  39  87 N5        30.04R
SASKATOON      DRIZZLE   43  39  87 N6        30.10R
$$



USA.gov is the U.S. government's official web portal to all federal, state and local government web resources and services.